User: anonymous   Login
Location: Unspecified
(0.0000°N, 0.0000°E)
Time: 14:55:13
(UTC+00:00)
Language:

Envisat - Orbit

View from above orbital plane
View from above orbital plane
View from above satellite
View from above satellite

Ground track
Ground track

The orbit data is extracted from the following two-line orbital elements,

1 27386U 02009A   19114.50094043 -.00000019  00000-0  72962-5 0  9990
2 27386  98.1540 138.3364 0001401  88.7485  36.1586 14.37946571898268
Epoch (UTC): 24 April 2019 12:01:21
Eccentricity: 0.0001401
inclination: 98.1540°
perigee height: 764 km
apogee height: 766 km
right ascension of ascending node: 138.3364°
argument of perigee: 88.7485°
revolutions per day: 14.37946571
mean anomaly at epoch: 36.1586°
orbit number at epoch: 89826

The dashed part of the orbit path shows where the satellite is in the earth's shadow,  

DLR